STARLINK-31844

Last updated on Fri Sep 20 2024 00:02:03 GMT+0000 (Coordinated Universal Time)

1 60583U 24150A 24263.32136399 .00001693 00000+0 52313-4 0 9993 2 60583 53.1595 281.0557 0001410 62.7994 297.3154 15.39607449 5883
UTC large
Height (km)
Speed (km/s)
/
Latitude / Longitude
Inclination (degrees)
Orbital Period (minutes)
Azimuth
Elevation
Range (km)
Doppler Factor

Next 0 passes for location: London (51.5072 / 0.1276)

Sorry there are no passes over London.